Data supplied by UK-AIR on 5/4/2008
All Data GMT hour ending 
Status: R =Ratified P=Provisional,P*=As supplied
,,London Hillingdon,,,,,,,,,,,,,,,,,,,,,,,
Date,time,"Carbon monoxide",status,unit,"PM10 particulate matter (Hourly measured)",status,unit,"Nitric oxide",status,unit,"Nitrogen dioxide",status,unit,"Nitrogen oxides as nitrogen dioxide",status,unit,"Ozone",status,unit,"Sulphur dioxide",status,unit
 
01-01-1997,01:00,,,,,,,,,,,,,,,,,,,,,
01-01-1997,02:00,,,,,,,,,,,,,,,,,,,,,
01-01-1997,03:00,,,,,,,,,,,,,,,,,,,,,
01-01-1997,04:00,,,,,,,,,,,,,,,,,,,,,
01-01-1997,05:00,,,,,,,,,,,,,,,,,,,,,
01-01-1997,06:00,,,,,,,,,,,,,,,,,,,,,
01-01-1997,07:00,,,,14,R,ugm-3 (GRAV EQ),1,R,ugm-3,13,R,ugm-3,15,R,ugm-3,60,R,ugm-3,5,R,ugm-3
01-01-1997,08:00,,,,12,R,ugm-3 (GRAV EQ),1,R,ugm-3,17,R,ugm-3,19,R,ugm-3,58,R,ugm-3,5,R,ugm-3
01-01-1997,09:00,,,,14,R,ugm-3 (GRAV EQ),3,R,ugm-3,19,R,ugm-3,23,R,ugm-3,56,R,ugm-3,5,R,ugm-3
01-01-1997,10:00,,,,14,R,ugm-3 (GRAV EQ),4,R,ugm-3,23,R,ugm-3,29,R,ugm-3,54,R,ugm-3,5,R,ugm-3
01-01-1997,11:00,,,,16,R,ugm-3 (GRAV EQ),5,R,ugm-3,23,R,ugm-3,31,R,ugm-3,54,R,ugm-3,5,R,ugm-3
01-01-1997,12:00,,,,17,R,ugm-3 (GRAV EQ),6,R,ugm-3,25,R,ugm-3,34,R,ugm-3,50,R,ugm-3,5,R,ugm-3
01-01-1997,13:00,,,,13,R,ugm-3 (GRAV EQ),6,R,ugm-3,29,R,ugm-3,38,R,ugm-3,46,R,ugm-3,5,R,ugm-3
01-01-1997,14:00,,,,16,R,ugm-3 (GRAV EQ),8,R,ugm-3,29,R,ugm-3,40,R,ugm-3,48,R,ugm-3,5,R,ugm-3
01-01-1997,15:00,,,,12,R,ugm-3 (GRAV EQ),6,R,ugm-3,29,R,ugm-3,38,R,ugm-3,48,R,ugm-3,5,R,ugm-3
01-01-1997,16:00,,,,16,R,ugm-3 (GRAV EQ),5,R,ugm-3,34,R,ugm-3,42,R,ugm-3,42,R,ugm-3,8,R,ugm-3
01-01-1997,17:00,,,,17,R,ugm-3 (GRAV EQ),5,R,ugm-3,36,R,ugm-3,44,R,ugm-3,40,R,ugm-3,5,R,ugm-3
01-01-1997,18:00,,,,12,R,ugm-3 (GRAV EQ),4,R,ugm-3,36,R,ugm-3,42,R,ugm-3,38,R,ugm-3,5,R,ugm-3
01-01-1997,19:00,,,,20,R,ugm-3 (GRAV EQ),3,R,ugm-3,46,R,ugm-3,50,R,ugm-3,28,R,ugm-3,8,R,ugm-3
01-01-1997,20:00,,,,20,R,ugm-3 (GRAV EQ),3,R,ugm-3,46,R,ugm-3,50,R,ugm-3,26,R,ugm-3,8,R,ugm-3
01-01-1997,21:00,,,,17,R,ugm-3 (GRAV EQ),3,R,ugm-3,42,R,ugm-3,46,R,ugm-3,28,R,ugm-3,3,R,ugm-3
01-01-1997,22:00,,,,16,R,ugm-3 (GRAV EQ),3,R,ugm-3,46,R,ugm-3,50,R,ugm-3,24,R,ugm-3,5,R,ugm-3
01-01-1997,23:00,,,,16,R,ugm-3 (GRAV EQ),3,R,ugm-3,50,R,ugm-3,53,R,ugm-3,16,R,ugm-3,5,R,ugm-3
01-01-1997,24:00,,,,18,R,ugm-3 (GRAV EQ),5,R,ugm-3,52,R,ugm-3,59,R,ugm-3,10,R,ugm-3,5,R,ugm-3
02-01-1997,01:00,,,,17,R,ugm-3 (GRAV EQ),3,R,ugm-3,48,R,ugm-3,52,R,ugm-3,14,R,ugm-3,5,R,ugm-3
02-01-1997,02:00,,,,14,R,ugm-3 (GRAV EQ),1,R,ugm-3,42,R,ugm-3,44,R,ugm-3,16,R,ugm-3,5,R,ugm-3
02-01-1997,03:00,,,,18,R,ugm-3 (GRAV EQ),13,R,ugm-3,52,R,ugm-3,71,R,ugm-3,10,R,ugm-3,11,R,ugm-3
02-01-1997,04:00,,,,21,R,ugm-3 (GRAV EQ),6,R,ugm-3,36,R,ugm-3,46,R,ugm-3,18,R,ugm-3,8,R,ugm-3
02-01-1997,05:00,,,,23,R,ugm-3 (GRAV EQ),23,R,ugm-3,50,R,ugm-3,84,R,ugm-3,6,R,ugm-3,19,R,ugm-3
02-01-1997,06:00,,,,20,R,ugm-3 (GRAV EQ),6,R,ugm-3,46,R,ugm-3,55,R,ugm-3,6,R,ugm-3,13,R,ugm-3
02-01-1997,07:00,,,,23,R,ugm-3 (GRAV EQ),38,R,ugm-3,61,R,ugm-3,118,R,ugm-3,2,R,ugm-3,13,R,ugm-3
02-01-1997,08:00,,,,21,R,ugm-3 (GRAV EQ),53,R,ugm-3,65,R,ugm-3,145,R,ugm-3,2,R,ugm-3,16,R,ugm-3
02-01-1997,09:00,,,,31,R,ugm-3 (GRAV EQ),91,R,ugm-3,73,R,ugm-3,212,R,ugm-3,4,R,ugm-3,13,R,ugm-3
02-01-1997,10:00,,,,31,R,ugm-3 (GRAV EQ),90,R,ugm-3,69,R,ugm-3,206,R,ugm-3,4,R,ugm-3,19,R,ugm-3
02-01-1997,11:00,,,,29,R,ugm-3 (GRAV EQ),56,R,ugm-3,65,R,ugm-3,151,R,ugm-3,10,R,ugm-3,21,R,ugm-3
02-01-1997,12:00,,,,20,R,ugm-3 (GRAV EQ),35,R,ugm-3,59,R,ugm-3,113,R,ugm-3,18,R,ugm-3,16,R,ugm-3
02-01-1997,13:00,,,,25,R,ugm-3 (GRAV EQ),26,R,ugm-3,55,R,ugm-3,96,R,ugm-3,22,R,ugm-3,19,R,ugm-3
02-01-1997,14:00,,,,35,R,ugm-3 (GRAV EQ),19,R,ugm-3,48,R,ugm-3,76,R,ugm-3,28,R,ugm-3,21,R,ugm-3
02-01-1997,15:00,,,,33,R,ugm-3 (GRAV EQ),21,R,ugm-3,53,R,ugm-3,86,R,ugm-3,20,R,ugm-3,19,R,ugm-3
02-01-1997,16:00,,,,27,R,ugm-3 (GRAV EQ),16,R,ugm-3,57,R,ugm-3,82,R,ugm-3,16,R,ugm-3,16,R,ugm-3
02-01-1997,17:00,,,,38,R,ugm-3 (GRAV EQ),43,R,ugm-3,67,R,ugm-3,132,R,ugm-3,4,R,ugm-3,13,R,ugm-3
02-01-1997,18:00,,,,46,R,ugm-3 (GRAV EQ),85,R,ugm-3,73,R,ugm-3,202,R,ugm-3,2,R,ugm-3,19,R,ugm-3
02-01-1997,19:00,,,,48,R,ugm-3 (GRAV EQ),80,R,ugm-3,73,R,ugm-3,195,R,ugm-3,4,R,ugm-3,24,R,ugm-3
02-01-1997,20:00,,,,53,R,ugm-3 (GRAV EQ),86,R,ugm-3,73,R,ugm-3,204,R,ugm-3,4,R,ugm-3,24,R,ugm-3
02-01-1997,21:00,,,,40,R,ugm-3 (GRAV EQ),66,R,ugm-3,67,R,ugm-3,168,R,ugm-3,2,R,ugm-3,21,R,ugm-3
02-01-1997,22:00,,,,42,R,ugm-3 (GRAV EQ),40,R,ugm-3,61,R,ugm-3,122,R,ugm-3,2,R,ugm-3,19,R,ugm-3
02-01-1997,23:00,,,,43,R,ugm-3 (GRAV EQ),26,R,ugm-3,57,R,ugm-3,97,R,ugm-3,2,R,ugm-3,19,R,ugm-3
02-01-1997,24:00,,,,38,R,ugm-3 (GRAV EQ),18,R,ugm-3,53,R,ugm-3,80,R,ugm-3,4,R,ugm-3,21,R,ugm-3
03-01-1997,01:00,,,,36,R,ugm-3 (GRAV EQ),4,R,ugm-3,36,R,ugm-3,42,R,ugm-3,18,R,ugm-3,24,R,ugm-3
03-01-1997,02:00,,,,49,R,ugm-3 (GRAV EQ),1,R,ugm-3,32,R,ugm-3,34,R,ugm-3,24,R,ugm-3,35,R,ugm-3
03-01-1997,03:00,,,,51,R,ugm-3 (GRAV EQ),3,R,ugm-3,27,R,ugm-3,31,R,ugm-3,30,R,ugm-3,35,R,ugm-3
03-01-1997,04:00,,,,48,R,ugm-3 (GRAV EQ),1,R,ugm-3,23,R,ugm-3,25,R,ugm-3,34,R,ugm-3,32,R,ugm-3
03-01-1997,05:00,,,,46,R,ugm-3 (GRAV EQ),1,R,ugm-3,19,R,ugm-3,21,R,ugm-3,40,R,ugm-3,32,R,ugm-3
03-01-1997,06:00,,,,49,R,ugm-3 (GRAV EQ),1,R,ugm-3,19,R,ugm-3,21,R,ugm-3,38,R,ugm-3,32,R,ugm-3
03-01-1997,07:00,,,,52,R,ugm-3 (GRAV EQ),3,R,ugm-3,25,R,ugm-3,29,R,ugm-3,34,R,ugm-3,35,R,ugm-3
03-01-1997,08:00,,,,55,R,ugm-3 (GRAV EQ),4,R,ugm-3,29,R,ugm-3,34,R,ugm-3,30,R,ugm-3,37,R,ugm-3
03-01-1997,09:00,,,,55,R,ugm-3 (GRAV EQ),8,R,ugm-3,38,R,ugm-3,50,R,ugm-3,16,R,ugm-3,56,R,ugm-3
03-01-1997,10:00,,,,55,R,ugm-3 (GRAV EQ),10,R,ugm-3,46,R,ugm-3,61,R,ugm-3,10,R,ugm-3,53,R,ugm-3
03-01-1997,11:00,,,,53,R,ugm-3 (GRAV EQ),11,R,ugm-3,44,R,ugm-3,61,R,ugm-3,12,R,ugm-3,45,R,ugm-3
03-01-1997,12:00,,,,53,R,ugm-3 (GRAV EQ),11,R,ugm-3,46,R,ugm-3,63,R,ugm-3,14,R,ugm-3,43,R,ugm-3
03-01-1997,13:00,,,,62,R,ugm-3 (GRAV EQ),13,R,ugm-3,44,R,ugm-3,63,R,ugm-3,12,R,ugm-3,45,R,ugm-3
03-01-1997,14:00,,,,55,R,ugm-3 (GRAV EQ),15,R,ugm-3,44,R,ugm-3,67,R,ugm-3,14,R,ugm-3,37,R,ugm-3
03-01-1997,15:00,,,,53,R,ugm-3 (GRAV EQ),13,R,ugm-3,42,R,ugm-3,61,R,ugm-3,18,R,ugm-3,37,R,ugm-3
03-01-1997,16:00,,,,53,R,ugm-3 (GRAV EQ),16,R,ugm-3,48,R,ugm-3,73,R,ugm-3,10,R,ugm-3,40,R,ugm-3
03-01-1997,17:00,,,,51,R,ugm-3 (GRAV EQ),9,R,ugm-3,40,R,ugm-3,53,R,ugm-3,16,R,ugm-3,32,R,ugm-3
03-01-1997,18:00,,,,52,R,ugm-3 (GRAV EQ),10,R,ugm-3,44,R,ugm-3,59,R,ugm-3,14,R,ugm-3,32,R,ugm-3
03-01-1997,19:00,,,,51,R,ugm-3 (GRAV EQ),14,R,ugm-3,46,R,ugm-3,67,R,ugm-3,12,R,ugm-3,29,R,ugm-3
03-01-1997,20:00,,,,52,R,ugm-3 (GRAV EQ),13,R,ugm-3,44,R,ugm-3,63,R,ugm-3,14,R,ugm-3,27,R,ugm-3
03-01-1997,21:00,,,,49,R,ugm-3 (GRAV EQ),11,R,ugm-3,38,R,ugm-3,55,R,ugm-3,16,R,ugm-3,27,R,ugm-3
03-01-1997,22:00,,,,48,R,ugm-3 (GRAV EQ),11,R,ugm-3,38,R,ugm-3,55,R,ugm-3,18,R,ugm-3,27,R,ugm-3
03-01-1997,23:00,,,,42,R,ugm-3 (GRAV EQ),10,R,ugm-3,32,R,ugm-3,48,R,ugm-3,22,R,ugm-3,27,R,ugm-3
03-01-1997,24:00,,,,43,R,ugm-3 (GRAV EQ),9,R,ugm-3,32,R,ugm-3,46,R,ugm-3,24,R,ugm-3,27,R,ugm-3
04-01-1997,01:00,,,,42,R,ugm-3 (GRAV EQ),3,R,ugm-3,21,R,ugm-3,25,R,ugm-3,34,R,ugm-3,27,R,ugm-3
04-01-1997,02:00,,,,43,R,ugm-3 (GRAV EQ),1,R,ugm-3,19,R,ugm-3,21,R,ugm-3,36,R,ugm-3,19,R,ugm-3
04-01-1997,03:00,,,,44,R,ugm-3 (GRAV EQ),3,R,ugm-3,19,R,ugm-3,23,R,ugm-3,34,R,ugm-3,16,R,ugm-3
04-01-1997,04:00,,,,38,R,ugm-3 (GRAV EQ),1,R,ugm-3,13,R,ugm-3,15,R,ugm-3,42,R,ugm-3,16,R,ugm-3
04-01-1997,05:00,,,,36,R,ugm-3 (GRAV EQ),3,R,ugm-3,13,R,ugm-3,17,R,ugm-3,42,R,ugm-3,13,R,ugm-3
04-01-1997,06:00,,,,35,R,ugm-3 (GRAV EQ),3,R,ugm-3,15,R,ugm-3,19,R,ugm-3,42,R,ugm-3,13,R,ugm-3
04-01-1997,07:00,,,,33,R,ugm-3 (GRAV EQ),3,R,ugm-3,17,R,ugm-3,21,R,ugm-3,40,R,ugm-3,13,R,ugm-3
04-01-1997,08:00,,,,33,R,ugm-3 (GRAV EQ),4,R,ugm-3,23,R,ugm-3,29,R,ugm-3,34,R,ugm-3,13,R,ugm-3
04-01-1997,09:00,,,,31,R,ugm-3 (GRAV EQ),5,R,ugm-3,29,R,ugm-3,36,R,ugm-3,26,R,ugm-3,21,R,ugm-3
04-01-1997,10:00,,,,26,R,ugm-3 (GRAV EQ),4,R,ugm-3,23,R,ugm-3,29,R,ugm-3,36,R,ugm-3,16,R,ugm-3
04-01-1997,11:00,,,,26,R,ugm-3 (GRAV EQ),4,R,ugm-3,21,R,ugm-3,27,R,ugm-3,40,R,ugm-3,16,R,ugm-3
04-01-1997,12:00,,,,25,R,ugm-3 (GRAV EQ),5,R,ugm-3,25,R,ugm-3,32,R,ugm-3,38,R,ugm-3,13,R,ugm-3
04-01-1997,13:00,,,,25,R,ugm-3 (GRAV EQ),5,R,ugm-3,27,R,ugm-3,34,R,ugm-3,40,R,ugm-3,11,R,ugm-3
04-01-1997,14:00,,,,22,R,ugm-3 (GRAV EQ),8,R,ugm-3,27,R,ugm-3,38,R,ugm-3,42,R,ugm-3,8,R,ugm-3
04-01-1997,15:00,,,,25,R,ugm-3 (GRAV EQ),6,R,ugm-3,27,R,ugm-3,36,R,ugm-3,44,R,ugm-3,8,R,ugm-3
04-01-1997,16:00,,,,20,R,ugm-3 (GRAV EQ),4,R,ugm-3,25,R,ugm-3,31,R,ugm-3,48,R,ugm-3,8,R,ugm-3
04-01-1997,17:00,,,,25,R,ugm-3 (GRAV EQ),4,R,ugm-3,25,R,ugm-3,31,R,ugm-3,44,R,ugm-3,13,R,ugm-3
04-01-1997,18:00,,,,26,R,ugm-3 (GRAV EQ),3,R,ugm-3,23,R,ugm-3,27,R,ugm-3,46,R,ugm-3,8,R,ugm-3
04-01-1997,19:00,,,,22,R,ugm-3 (GRAV EQ),3,R,ugm-3,25,R,ugm-3,29,R,ugm-3,42,R,ugm-3,8,R,ugm-3
04-01-1997,20:00,,,,26,R,ugm-3 (GRAV EQ),3,R,ugm-3,19,R,ugm-3,23,R,ugm-3,50,R,ugm-3,5,R,ugm-3
04-01-1997,21:00,,,,25,R,ugm-3 (GRAV EQ),3,R,ugm-3,17,R,ugm-3,21,R,ugm-3,52,R,ugm-3,8,R,ugm-3
04-01-1997,22:00,,,,23,R,ugm-3 (GRAV EQ),1,R,ugm-3,15,R,ugm-3,17,R,ugm-3,50,R,ugm-3,5,R,ugm-3
04-01-1997,23:00,,,,21,R,ugm-3 (GRAV EQ),1,R,ugm-3,15,R,ugm-3,17,R,ugm-3,50,R,ugm-3,5,R,ugm-3
04-01-1997,24:00,,,,18,R,ugm-3 (GRAV EQ),1,R,ugm-3,11,R,ugm-3,13,R,ugm-3,54,R,ugm-3,8,R,ugm-3
05-01-1997,01:00,,,,18,R,ugm-3 (GRAV EQ),3,R,ugm-3,10,R,ugm-3,13,R,ugm-3,54,R,ugm-3,5,R,ugm-3
05-01-1997,02:00,,,,18,R,ugm-3 (GRAV EQ),1,R,ugm-3,11,R,ugm-3,13,R,ugm-3,58,R,ugm-3,5,R,ugm-3
05-01-1997,03:00,,,,20,R,ugm-3 (GRAV EQ),1,R,ugm-3,8,R,ugm-3,10,R,ugm-3,62,R,ugm-3,5,R,ugm-3
05-01-1997,04:00,,,,20,R,ugm-3 (GRAV EQ),1,R,ugm-3,8,R,ugm-3,10,R,ugm-3,60,R,ugm-3,5,R,ugm-3
05-01-1997,05:00,,,,20,R,ugm-3 (GRAV EQ),1,R,ugm-3,13,R,ugm-3,15,R,ugm-3,54,R,ugm-3,5,R,ugm-3
05-01-1997,06:00,,,,18,R,ugm-3 (GRAV EQ),1,R,ugm-3,15,R,ugm-3,17,R,ugm-3,50,R,ugm-3,8,R,ugm-3
05-01-1997,07:00,,,,20,R,ugm-3 (GRAV EQ),3,R,ugm-3,15,R,ugm-3,19,R,ugm-3,52,R,ugm-3,5,R,ugm-3
05-01-1997,08:00,,,,20,R,ugm-3 (GRAV EQ),4,R,ugm-3,19,R,ugm-3,25,R,ugm-3,46,R,ugm-3,5,R,ugm-3
05-01-1997,09:00,,,,21,R,ugm-3 (GRAV EQ),3,R,ugm-3,21,R,ugm-3,25,R,ugm-3,44,R,ugm-3,5,R,ugm-3
05-01-1997,10:00,,,,17,R,ugm-3 (GRAV EQ),4,R,ugm-3,21,R,ugm-3,27,R,ugm-3,44,R,ugm-3,5,R,ugm-3
05-01-1997,11:00,,,,14,R,ugm-3 (GRAV EQ),4,R,ugm-3,21,R,ugm-3,27,R,ugm-3,48,R,ugm-3,5,R,ugm-3
05-01-1997,12:00,,,,18,R,ugm-3 (GRAV EQ),8,R,ugm-3,27,R,ugm-3,38,R,ugm-3,44,R,ugm-3,5,R,ugm-3
05-01-1997,13:00,,,,17,R,ugm-3 (GRAV EQ),9,R,ugm-3,31,R,ugm-3,44,R,ugm-3,42,R,ugm-3,5,R,ugm-3
05-01-1997,14:00,,,,16,R,ugm-3 (GRAV EQ),9,R,ugm-3,31,R,ugm-3,44,R,ugm-3,42,R,ugm-3,5,R,ugm-3
05-01-1997,15:00,,,,21,R,ugm-3 (GRAV EQ),8,R,ugm-3,25,R,ugm-3,36,R,ugm-3,46,R,ugm-3,5,R,ugm-3
05-01-1997,16:00,,,,20,R,ugm-3 (GRAV EQ),8,R,ugm-3,34,R,ugm-3,46,R,ugm-3,38,R,ugm-3,5,R,ugm-3
05-01-1997,17:00,,,,22,R,ugm-3 (GRAV EQ),13,R,ugm-3,46,R,ugm-3,65,R,ugm-3,22,R,ugm-3,8,R,ugm-3
05-01-1997,18:00,,,,16,R,ugm-3 (GRAV EQ),6,R,ugm-3,34,R,ugm-3,44,R,ugm-3,38,R,ugm-3,8,R,ugm-3
05-01-1997,19:00,,,,13,R,ugm-3 (GRAV EQ),6,R,ugm-3,34,R,ugm-3,44,R,ugm-3,40,R,ugm-3,8,R,ugm-3
05-01-1997,20:00,,,,12,R,ugm-3 (GRAV EQ),9,R,ugm-3,40,R,ugm-3,53,R,ugm-3,30,R,ugm-3,8,R,ugm-3
05-01-1997,21:00,,,,13,R,ugm-3 (GRAV EQ),5,R,ugm-3,34,R,ugm-3,42,R,ugm-3,36,R,ugm-3,11,R,ugm-3
05-01-1997,22:00,,,,16,R,ugm-3 (GRAV EQ),4,R,ugm-3,31,R,ugm-3,36,R,ugm-3,40,R,ugm-3,13,R,ugm-3
05-01-1997,23:00,,,,12,R,ugm-3 (GRAV EQ),4,R,ugm-3,29,R,ugm-3,34,R,ugm-3,44,R,ugm-3,11,R,ugm-3
05-01-1997,24:00,,,,14,R,ugm-3 (GRAV EQ),4,R,ugm-3,25,R,ugm-3,31,R,ugm-3,46,R,ugm-3,11,R,ugm-3
06-01-1997,01:00,,,,17,R,ugm-3 (GRAV EQ),1,R,ugm-3,19,R,ugm-3,21,R,ugm-3,50,R,ugm-3,13,R,ugm-3
06-01-1997,02:00,,,,12,R,ugm-3 (GRAV EQ),1,R,ugm-3,10,R,ugm-3,11,R,ugm-3,66,R,ugm-3,11,R,ugm-3
06-01-1997,03:00,,,,10,R,ugm-3 (GRAV EQ),1,R,ugm-3,8,R,ugm-3,10,R,ugm-3,70,R,ugm-3,11,R,ugm-3
06-01-1997,04:00,,,,13,R,ugm-3 (GRAV EQ),1,R,ugm-3,8,R,ugm-3,10,R,ugm-3,66,R,ugm-3,8,R,ugm-3
06-01-1997,05:00,,,,14,R,ugm-3 (GRAV EQ),1,R,ugm-3,10,R,ugm-3,11,R,ugm-3,64,R,ugm-3,11,R,ugm-3
06-01-1997,06:00,,,,17,R,ugm-3 (GRAV EQ),4,R,ugm-3,23,R,ugm-3,29,R,ugm-3,50,R,ugm-3,11,R,ugm-3
06-01-1997,07:00,,,,23,R,ugm-3 (GRAV EQ),13,R,ugm-3,31,R,ugm-3,50,R,ugm-3,36,R,ugm-3,8,R,ugm-3
06-01-1997,08:00,,,,26,R,ugm-3 (GRAV EQ),,,,,,,,,,24,R,ugm-3,13,R,ugm-3
06-01-1997,09:00,,,,34,R,ugm-3 (GRAV EQ),53,R,ugm-3,57,R,ugm-3,138,R,ugm-3,14,R,ugm-3,16,R,ugm-3
06-01-1997,10:00,,,,33,R,ugm-3 (GRAV EQ),34,R,ugm-3,57,R,ugm-3,109,R,ugm-3,16,R,ugm-3,13,R,ugm-3
06-01-1997,11:00,,,,48,R,ugm-3 (GRAV EQ),113,R,ugm-3,61,R,ugm-3,233,R,ugm-3,8,R,ugm-3,19,R,ugm-3
06-01-1997,12:00,,,,74,R,ugm-3 (GRAV EQ),184,R,ugm-3,94,R,ugm-3,374,R,ugm-3,4,R,ugm-3,27,R,ugm-3
06-01-1997,13:00,,,,68,R,ugm-3 (GRAV EQ),191,R,ugm-3,88,R,ugm-3,380,R,ugm-3,4,R,ugm-3,37,R,ugm-3
06-01-1997,14:00,,,,34,R,ugm-3 (GRAV EQ),33,R,ugm-3,63,R,ugm-3,113,R,ugm-3,10,R,ugm-3,27,R,ugm-3
06-01-1997,15:00,,,,34,R,ugm-3 (GRAV EQ),25,R,ugm-3,67,R,ugm-3,105,R,ugm-3,6,R,ugm-3,19,R,ugm-3
06-01-1997,16:00,,,,40,R,ugm-3 (GRAV EQ),40,R,ugm-3,69,R,ugm-3,130,R,ugm-3,4,R,ugm-3,16,R,ugm-3
06-01-1997,17:00,,,,38,R,ugm-3 (GRAV EQ),63,R,ugm-3,69,R,ugm-3,164,R,ugm-3,2,R,ugm-3,16,R,ugm-3
06-01-1997,18:00,,,,46,R,ugm-3 (GRAV EQ),89,R,ugm-3,71,R,ugm-3,206,R,ugm-3,2,R,ugm-3,21,R,ugm-3
06-01-1997,19:00,,,,49,R,ugm-3 (GRAV EQ),105,R,ugm-3,71,R,ugm-3,231,R,ugm-3,2,R,ugm-3,35,R,ugm-3
06-01-1997,20:00,,,,40,R,ugm-3 (GRAV EQ),69,R,ugm-3,65,R,ugm-3,170,R,ugm-3,2,R,ugm-3,35,R,ugm-3
06-01-1997,21:00,,,,35,R,ugm-3 (GRAV EQ),64,R,ugm-3,65,R,ugm-3,162,R,ugm-3,2,R,ugm-3,29,R,ugm-3
06-01-1997,22:00,,,,23,R,ugm-3 (GRAV EQ),34,R,ugm-3,59,R,ugm-3,111,R,ugm-3,4,R,ugm-3,16,R,ugm-3
06-01-1997,23:00,,,,27,R,ugm-3 (GRAV EQ),41,R,ugm-3,61,R,ugm-3,124,R,ugm-3,0,R,ugm-3,19,R,ugm-3
06-01-1997,24:00,,,,29,R,ugm-3 (GRAV EQ),20,R,ugm-3,53,R,ugm-3,84,R,ugm-3,2,R,ugm-3,21,R,ugm-3
07-01-1997,01:00,,,,18,R,ugm-3 (GRAV EQ),3,R,ugm-3,32,R,ugm-3,36,R,ugm-3,22,R,ugm-3,16,R,ugm-3
07-01-1997,02:00,,,,16,R,ugm-3 (GRAV EQ),1,R,ugm-3,19,R,ugm-3,21,R,ugm-3,40,R,ugm-3,8,R,ugm-3
07-01-1997,03:00,,,,17,R,ugm-3 (GRAV EQ),1,R,ugm-3,17,R,ugm-3,19,R,ugm-3,44,R,ugm-3,8,R,ugm-3
07-01-1997,04:00,,,,18,R,ugm-3 (GRAV EQ),3,R,ugm-3,31,R,ugm-3,34,R,ugm-3,26,R,ugm-3,11,R,ugm-3
07-01-1997,05:00,,,,22,R,ugm-3 (GRAV EQ),3,R,ugm-3,38,R,ugm-3,42,R,ugm-3,18,R,ugm-3,13,R,ugm-3
07-01-1997,06:00,,,,23,R,ugm-3 (GRAV EQ),5,R,ugm-3,42,R,ugm-3,50,R,ugm-3,14,R,ugm-3,16,R,ugm-3
07-01-1997,07:00,,,,18,R,ugm-3 (GRAV EQ),11,R,ugm-3,38,R,ugm-3,55,R,ugm-3,22,R,ugm-3,13,R,ugm-3
07-01-1997,08:00,,,,21,R,ugm-3 (GRAV EQ),19,R,ugm-3,53,R,ugm-3,82,R,ugm-3,10,R,ugm-3,11,R,ugm-3
07-01-1997,09:00,,,,21,R,ugm-3 (GRAV EQ),20,R,ugm-3,53,R,ugm-3,84,R,ugm-3,10,R,ugm-3,8,R,ugm-3
07-01-1997,10:00,,,,22,R,ugm-3 (GRAV EQ),19,R,ugm-3,52,R,ugm-3,80,R,ugm-3,16,R,ugm-3,13,R,ugm-3
07-01-1997,11:00,,,,20,R,ugm-3 (GRAV EQ),13,R,ugm-3,46,R,ugm-3,65,R,ugm-3,20,R,ugm-3,11,R,ugm-3
07-01-1997,12:00,,,,22,R,ugm-3 (GRAV EQ),16,R,ugm-3,52,R,ugm-3,76,R,ugm-3,16,R,ugm-3,13,R,ugm-3
07-01-1997,13:00,,,,,,,,,,,,,,,,,,,,,
07-01-1997,14:00,,,,25,R,ugm-3 (GRAV EQ),,,,,,,,,,,,,,,
07-01-1997,15:00,,,,21,R,ugm-3 (GRAV EQ),,,,,,,,,,,,,,,
07-01-1997,16:00,,,,22,R,ugm-3 (GRAV EQ),,,,,,,,,,,,,,,
07-01-1997,17:00,,,,7,R,ugm-3 (GRAV EQ),,,,,,,,,,,,,,,
07-01-1997,18:00,,,,22,R,ugm-3 (GRAV EQ),,,,,,,,,,,,,,,
07-01-1997,19:00,,,,29,R,ugm-3 (GRAV EQ),,,,,,,,,,,,,,,
07-01-1997,20:00,,,,34,R,ugm-3 (GRAV EQ),,,,,,,,,,,,,,,
07-01-1997,21:00,,,,38,R,ugm-3 (GRAV EQ),,,,,,,,,,,,,,,
07-01-1997,22:00,,,,35,R,ugm-3 (GRAV EQ),,,,,,,,,,,,,,,
07-01-1997,23:00,,,,40,R,ugm-3 (GRAV EQ),,,,,,,,,,,,,,,
07-01-1997,24:00,,,,36,R,ugm-3 (GRAV EQ),,,,,,,,,,,,,,,
08-01-1997,01:00,,,,40,R,ugm-3 (GRAV EQ),,,,,,,,,,,,,,,
08-01-1997,02:00,,,,35,R,ugm-3 (GRAV EQ),,,,,,,,,,,,,,,
08-01-1997,03:00,,,,33,R,ugm-3 (GRAV EQ),,,,,,,,,,,,,,,
08-01-1997,04:00,,,,43,R,ugm-3 (GRAV EQ),,,,,,,,,,,,,,,
08-01-1997,05:00,,,,38,R,ugm-3 (GRAV EQ),,,,,,,,,,,,,,,
08-01-1997,06:00,,,,29,R,ugm-3 (GRAV EQ),,,,,,,,,,,,,,,
08-01-1997,07:00,,,,27,R,ugm-3 (GRAV EQ),,,,,,,,,,,,,,,
08-01-1997,08:00,,,,38,R,ugm-3 (GRAV EQ),,,,,,,,,,,,,,,
08-01-1997,09:00,,,,38,R,ugm-3 (GRAV EQ),,,,,,,,,,,,,,,
08-01-1997,10:00,,,,25,R,ugm-3 (GRAV EQ),,,,,,,,,,,,,,,
08-01-1997,11:00,,,,26,R,ugm-3 (GRAV EQ),,,,,,,,,,,,,,,
08-01-1997,12:00,,,,30,R,ugm-3 (GRAV EQ),,,,,,,,,,,,,,,
08-01-1997,13:00,,,,31,R,ugm-3 (GRAV EQ),,,,,,,,,,,,,,,
08-01-1997,14:00,,,,30,R,ugm-3 (GRAV EQ),,,,,,,,,,,,,,,
08-01-1997,15:00,,,,39,R,ugm-3 (GRAV EQ),,,,,,,,,,,,,,,
08-01-1997,16:00,,,,55,R,ugm-3 (GRAV EQ),21,R,ugm-3,63,R,ugm-3,96,R,ugm-3,4,R,ugm-3,,,
08-01-1997,17:00,,,,57,R,ugm-3 (GRAV EQ),30,R,ugm-3,67,R,ugm-3,113,R,ugm-3,2,R,ugm-3,,,
08-01-1997,18:00,0.8,R,mgm-3,53,R,ugm-3 (GRAV EQ),31,R,ugm-3,65,R,ugm-3,113,R,ugm-3,2,R,ugm-3,,,
08-01-1997,19:00,0.8,R,mgm-3,49,R,ugm-3 (GRAV EQ),34,R,ugm-3,67,R,ugm-3,118,R,ugm-3,2,R,ugm-3,,,
08-01-1997,20:00,0.6,R,mgm-3,46,R,ugm-3 (GRAV EQ),25,R,ugm-3,61,R,ugm-3,99,R,ugm-3,2,R,ugm-3,,,
08-01-1997,21:00,0.7,R,mgm-3,40,R,ugm-3 (GRAV EQ),21,R,ugm-3,61,R,ugm-3,94,R,ugm-3,2,R,ugm-3,,,
08-01-1997,22:00,0.5,R,mgm-3,39,R,ugm-3 (GRAV EQ),18,R,ugm-3,57,R,ugm-3,84,R,ugm-3,4,R,ugm-3,,,
08-01-1997,23:00,0.3,R,mgm-3,40,R,ugm-3 (GRAV EQ),14,R,ugm-3,52,R,ugm-3,73,R,ugm-3,4,R,ugm-3,,,
08-01-1997,24:00,0.3,R,mgm-3,48,R,ugm-3 (GRAV EQ),10,R,ugm-3,52,R,ugm-3,67,R,ugm-3,4,R,ugm-3,,,
09-01-1997,01:00,0.5,R,mgm-3,69,R,ugm-3 (GRAV EQ),24,R,ugm-3,57,R,ugm-3,94,R,ugm-3,2,R,ugm-3,,,
09-01-1997,02:00,0.5,R,mgm-3,65,R,ugm-3 (GRAV EQ),18,R,ugm-3,61,R,ugm-3,88,R,ugm-3,2,R,ugm-3,,,
09-01-1997,03:00,0.5,R,mgm-3,60,R,ugm-3 (GRAV EQ),18,R,ugm-3,59,R,ugm-3,86,R,ugm-3,2,R,ugm-3,,,
09-01-1997,04:00,0.5,R,mgm-3,70,R,ugm-3 (GRAV EQ),19,R,ugm-3,59,R,ugm-3,88,R,ugm-3,2,R,ugm-3,,,
09-01-1997,05:00,0.6,R,mgm-3,77,R,ugm-3 (GRAV EQ),16,R,ugm-3,59,R,ugm-3,84,R,ugm-3,0,R,ugm-3,,,
09-01-1997,06:00,0.6,R,mgm-3,74,R,ugm-3 (GRAV EQ),21,R,ugm-3,57,R,ugm-3,90,R,ugm-3,0,R,ugm-3,,,
09-01-1997,07:00,0.7,R,mgm-3,75,R,ugm-3 (GRAV EQ),43,R,ugm-3,59,R,ugm-3,124,R,ugm-3,0,R,ugm-3,,,
09-01-1997,08:00,0.8,R,mgm-3,79,R,ugm-3 (GRAV EQ),56,R,ugm-3,59,R,ugm-3,145,R,ugm-3,2,R,ugm-3,,,
09-01-1997,09:00,1.3,R,mgm-3,69,R,ugm-3 (GRAV EQ),56,R,ugm-3,59,R,ugm-3,145,R,ugm-3,2,R,ugm-3,,,
09-01-1997,10:00,1.4,R,mgm-3,59,R,ugm-3 (GRAV EQ),68,R,ugm-3,59,R,ugm-3,162,R,ugm-3,2,R,ugm-3,,,
09-01-1997,11:00,1.0,R,mgm-3,52,R,ugm-3 (GRAV EQ),65,R,ugm-3,59,R,ugm-3,159,R,ugm-3,4,R,ugm-3,,,
09-01-1997,12:00,1.0,R,mgm-3,42,R,ugm-3 (GRAV EQ),65,R,ugm-3,55,R,ugm-3,155,R,ugm-3,2,R,ugm-3,,,
09-01-1997,13:00,1.0,R,mgm-3,39,R,ugm-3 (GRAV EQ),61,R,ugm-3,55,R,ugm-3,149,R,ugm-3,4,R,ugm-3,,,
09-01-1997,14:00,0.9,R,mgm-3,42,R,ugm-3 (GRAV EQ),55,R,ugm-3,53,R,ugm-3,138,R,ugm-3,4,R,ugm-3,,,
09-01-1997,15:00,0.7,R,mgm-3,47,R,ugm-3 (GRAV EQ),46,R,ugm-3,55,R,ugm-3,126,R,ugm-3,4,R,ugm-3,,,
09-01-1997,16:00,0.5,R,mgm-3,34,R,ugm-3 (GRAV EQ),23,R,ugm-3,57,R,ugm-3,92,R,ugm-3,8,R,ugm-3,,,
09-01-1997,17:00,0.5,R,mgm-3,25,R,ugm-3 (GRAV EQ),9,R,ugm-3,55,R,ugm-3,69,R,ugm-3,12,R,ugm-3,,,
09-01-1997,18:00,0.6,R,mgm-3,29,R,ugm-3 (GRAV EQ),10,R,ugm-3,55,R,ugm-3,71,R,ugm-3,12,R,ugm-3,,,
09-01-1997,19:00,0.6,R,mgm-3,25,R,ugm-3 (GRAV EQ),14,R,ugm-3,59,R,ugm-3,80,R,ugm-3,8,R,ugm-3,,,
09-01-1997,20:00,0.5,R,mgm-3,26,R,ugm-3 (GRAV EQ),10,R,ugm-3,55,R,ugm-3,71,R,ugm-3,12,R,ugm-3,,,
09-01-1997,21:00,0.2,R,mgm-3,22,R,ugm-3 (GRAV EQ),9,R,ugm-3,46,R,ugm-3,59,R,ugm-3,20,R,ugm-3,,,
09-01-1997,22:00,0.2,R,mgm-3,20,R,ugm-3 (GRAV EQ),10,R,ugm-3,42,R,ugm-3,57,R,ugm-3,24,R,ugm-3,,,
09-01-1997,23:00,0.2,R,mgm-3,21,R,ugm-3 (GRAV EQ),6,R,ugm-3,36,R,ugm-3,46,R,ugm-3,30,R,ugm-3,,,
09-01-1997,24:00,0.1,R,mgm-3,20,R,ugm-3 (GRAV EQ),8,R,ugm-3,31,R,ugm-3,42,R,ugm-3,34,R,ugm-3,,,
10-01-1997,01:00,0.1,R,mgm-3,20,R,ugm-3 (GRAV EQ),3,R,ugm-3,21,R,ugm-3,25,R,ugm-3,42,R,ugm-3,,,
10-01-1997,02:00,0.1,R,mgm-3,23,R,ugm-3 (GRAV EQ),1,R,ugm-3,21,R,ugm-3,23,R,ugm-3,42,R,ugm-3,,,
10-01-1997,03:00,0.1,R,mgm-3,23,R,ugm-3 (GRAV EQ),3,R,ugm-3,21,R,ugm-3,25,R,ugm-3,40,R,ugm-3,,,
10-01-1997,04:00,0.1,R,mgm-3,23,R,ugm-3 (GRAV EQ),3,R,ugm-3,29,R,ugm-3,32,R,ugm-3,30,R,ugm-3,,,
10-01-1997,05:00,0.1,R,mgm-3,26,R,ugm-3 (GRAV EQ),1,R,ugm-3,34,R,ugm-3,36,R,ugm-3,24,R,ugm-3,,,
10-01-1997,06:00,0.2,R,mgm-3,29,R,ugm-3 (GRAV EQ),5,R,ugm-3,40,R,ugm-3,48,R,ugm-3,16,R,ugm-3,,,
10-01-1997,07:00,0.3,R,mgm-3,31,R,ugm-3 (GRAV EQ),11,R,ugm-3,52,R,ugm-3,69,R,ugm-3,4,R,ugm-3,,,
10-01-1997,08:00,0.7,R,mgm-3,33,R,ugm-3 (GRAV EQ),38,R,ugm-3,59,R,ugm-3,117,R,ugm-3,2,R,ugm-3,,,
10-01-1997,09:00,1.0,R,mgm-3,38,R,ugm-3 (GRAV EQ),39,R,ugm-3,57,R,ugm-3,117,R,ugm-3,4,R,ugm-3,,,
10-01-1997,10:00,0.8,R,mgm-3,43,R,ugm-3 (GRAV EQ),39,R,ugm-3,61,R,ugm-3,120,R,ugm-3,4,R,ugm-3,,,
10-01-1997,11:00,0.6,R,mgm-3,48,R,ugm-3 (GRAV EQ),33,R,ugm-3,55,R,ugm-3,105,R,ugm-3,6,R,ugm-3,,,
10-01-1997,12:00,1.0,R,mgm-3,65,R,ugm-3 (GRAV EQ),95,R,ugm-3,61,R,ugm-3,206,R,ugm-3,4,R,ugm-3,,,
10-01-1997,13:00,1.0,R,mgm-3,96,R,ugm-3 (GRAV EQ),161,R,ugm-3,76,R,ugm-3,323,R,ugm-3,4,R,ugm-3,,,
10-01-1997,14:00,1.5,R,mgm-3,105,R,ugm-3 (GRAV EQ),270,R,ugm-3,97,R,ugm-3,510,R,ugm-3,6,R,ugm-3,,,
10-01-1997,15:00,1.5,R,mgm-3,111,R,ugm-3 (GRAV EQ),258,R,ugm-3,90,R,ugm-3,483,R,ugm-3,6,R,ugm-3,,,
10-01-1997,16:00,1.6,R,mgm-3,108,R,ugm-3 (GRAV EQ),264,R,ugm-3,92,R,ugm-3,495,R,ugm-3,4,R,ugm-3,,,
10-01-1997,17:00,2.1,R,mgm-3,107,R,ugm-3 (GRAV EQ),369,R,ugm-3,92,R,ugm-3,655,R,ugm-3,6,R,ugm-3,,,
10-01-1997,18:00,2.1,R,mgm-3,96,R,ugm-3 (GRAV EQ),330,R,ugm-3,99,R,ugm-3,604,R,ugm-3,6,R,ugm-3,,,
10-01-1997,19:00,1.9,R,mgm-3,82,R,ugm-3 (GRAV EQ),278,R,ugm-3,76,R,ugm-3,500,R,ugm-3,4,R,ugm-3,,,
10-01-1997,20:00,1.5,R,mgm-3,68,R,ugm-3 (GRAV EQ),235,R,ugm-3,63,R,ugm-3,422,R,ugm-3,4,R,ugm-3,,,
10-01-1997,21:00,1.7,R,mgm-3,85,R,ugm-3 (GRAV EQ),239,R,ugm-3,76,R,ugm-3,441,R,ugm-3,4,R,ugm-3,,,
10-01-1997,22:00,1.5,R,mgm-3,86,R,ugm-3 (GRAV EQ),199,R,ugm-3,74,R,ugm-3,378,R,ugm-3,4,R,ugm-3,,,
10-01-1997,23:00,1.6,R,mgm-3,82,R,ugm-3 (GRAV EQ),211,R,ugm-3,73,R,ugm-3,395,R,ugm-3,4,R,ugm-3,,,
10-01-1997,24:00,1.3,R,mgm-3,79,R,ugm-3 (GRAV EQ),140,R,ugm-3,65,R,ugm-3,279,R,ugm-3,4,R,ugm-3,,,
11-01-1997,01:00,1.0,R,mgm-3,70,R,ugm-3 (GRAV EQ),103,R,ugm-3,55,R,ugm-3,212,R,ugm-3,4,R,ugm-3,,,
11-01-1997,02:00,0.8,R,mgm-3,91,R,ugm-3 (GRAV EQ),69,R,ugm-3,55,R,ugm-3,160,R,ugm-3,2,R,ugm-3,,,
11-01-1997,03:00,0.7,R,mgm-3,113,R,ugm-3 (GRAV EQ),98,R,ugm-3,57,R,ugm-3,206,R,ugm-3,2,R,ugm-3,,,
11-01-1997,04:00,0.8,R,mgm-3,155,R,ugm-3 (GRAV EQ),98,R,ugm-3,61,R,ugm-3,210,R,ugm-3,2,R,ugm-3,,,
11-01-1997,05:00,0.8,R,mgm-3,172,R,ugm-3 (GRAV EQ),114,R,ugm-3,69,R,ugm-3,243,R,ugm-3,2,R,ugm-3,,,
11-01-1997,06:00,1.0,R,mgm-3,152,R,ugm-3 (GRAV EQ),164,R,ugm-3,86,R,ugm-3,336,R,ugm-3,4,R,ugm-3,,,
11-01-1997,07:00,1.4,R,mgm-3,133,R,ugm-3 (GRAV EQ),186,R,ugm-3,86,R,ugm-3,371,R,ugm-3,4,R,ugm-3,,,
11-01-1997,08:00,1.6,R,mgm-3,113,R,ugm-3 (GRAV EQ),221,R,ugm-3,94,R,ugm-3,432,R,ugm-3,4,R,ugm-3,,,
11-01-1997,09:00,1.7,R,mgm-3,122,R,ugm-3 (GRAV EQ),213,R,ugm-3,86,R,ugm-3,411,R,ugm-3,4,R,ugm-3,,,
11-01-1997,10:00,2.0,R,mgm-3,139,R,ugm-3 (GRAV EQ),294,R,ugm-3,92,R,ugm-3,541,R,ugm-3,4,R,ugm-3,,,
11-01-1997,11:00,2.2,R,mgm-3,133,R,ugm-3 (GRAV EQ),323,R,ugm-3,107,R,ugm-3,600,R,ugm-3,4,R,ugm-3,,,
11-01-1997,12:00,2.1,R,mgm-3,108,R,ugm-3 (GRAV EQ),286,R,ugm-3,105,R,ugm-3,542,R,ugm-3,4,R,ugm-3,,,
11-01-1997,13:00,2.0,R,mgm-3,117,R,ugm-3 (GRAV EQ),,,,,,,,,,4,R,ugm-3,,,
11-01-1997,14:00,2.3,R,mgm-3,130,R,ugm-3 (GRAV EQ),,,,,,,,,,4,R,ugm-3,,,
11-01-1997,15:00,2.4,R,mgm-3,125,R,ugm-3 (GRAV EQ),321,R,ugm-3,97,R,ugm-3,588,R,ugm-3,4,R,ugm-3,,,
11-01-1997,16:00,2.2,R,mgm-3,105,R,ugm-3 (GRAV EQ),306,R,ugm-3,96,R,ugm-3,563,R,ugm-3,4,R,ugm-3,,,
11-01-1997,17:00,1.9,R,mgm-3,72,R,ugm-3 (GRAV EQ),259,R,ugm-3,82,R,ugm-3,478,R,ugm-3,4,R,ugm-3,,,
11-01-1997,18:00,2.0,R,mgm-3,59,R,ugm-3 (GRAV EQ),293,R,ugm-3,80,R,ugm-3,527,R,ugm-3,4,R,ugm-3,,,
11-01-1997,19:00,2.1,R,mgm-3,52,R,ugm-3 (GRAV EQ),334,R,ugm-3,78,R,ugm-3,588,R,ugm-3,4,R,ugm-3,,,
11-01-1997,20:00,2.1,R,mgm-3,47,R,ugm-3 (GRAV EQ),305,R,ugm-3,73,R,ugm-3,539,R,ugm-3,4,R,ugm-3,,,
11-01-1997,21:00,2.1,R,mgm-3,47,R,ugm-3 (GRAV EQ),265,R,ugm-3,63,R,ugm-3,468,R,ugm-3,2,R,ugm-3,,,
11-01-1997,22:00,2.0,R,mgm-3,51,R,ugm-3 (GRAV EQ),235,R,ugm-3,67,R,ugm-3,426,R,ugm-3,2,R,ugm-3,,,